Weather History for KCNK - July, 2014

Change the Weather History Date:

Sunday, July 6, 2014

  Actual Average Record
Temperature  
Mean Temperature 87 °F 79 °F  
Max Temperature 101 °F 91 °F 108 °F (1991)
Min Temperature 73 °F 67 °F 50 °F (1908)
Degree Days  
Heating Degree Days 0 0  
Month to date heating degree days 0 0  
Since 1 June heating degree days 1 13  
Since 1 July heating degree days 0 0  
Cooling Degree Days 22 14  
Month to date cooling degree days 69 80  
Year to date cooling degree days 531 434  
Since 1 June cooling degree days 356 345  
Growing Degree Days 36 (Base 50)    
Moisture  
Dew Point 66 °F    
Average Humidity 52    
Maximum Humidity 74    
Minimum Humidity 29    
Precipitation  
Precipitation 0.00 in 0.14 in 0.87 in (1922)
Month to date precipitation 0.00 0.84  
Year to date precipitation 12.53 14.88  
Snow  
Snow 0.00 in 0.00 in T in (1930)
Month to date snowfall 0.0 0.0  
Year to date snowfall 16.9 13.7  
Since 1 July snowfall 0.0 0.0  
Snow Depth 0.00 in    
Sea Level Pressure  
Sea Level Pressure 29.81 in    
Wind  
Wind Speed 8 mph (SSW)    
Max Wind Speed 17 mph    
Max Gust Speed 22 mph    
Visibility 10 miles    
Events      
T = Trace of Precipitation, MM = Missing Value Source: NWS Daily Summary

Daily Weather History Graph

Daily Weather History Graph

Search for Another Location

Airport or City:

Trip Planner

Search our weather history database for the weather conditions in past years. The results will help you decide how hot, cold, wet, or windy it might be!

Date:

Astronomy

Jul. 06, 2014 Rise Set
Actual Time 6:09 AM CDT 9:00 PM CDT
Civil Twilight 5:37 AM CDT 9:32 PM CDT
Nautical Twilight 4:57 AM CDT 10:13 PM CDT
Astronomical Twilight 4:10 AM CDT 10:59 PM CDT
Moon 3:03 PM CDT (7/6) 1:28 AM CDT (7/6)
Length of Visible Light 15h 55m
Length of Day
14h 51m
Waxing Gibbous, 62% of the Moon is Illuminated
Jul 6
Waxing Gibbous
Jul 12
Full
Jul 18
Last Quarter
Jul 26
New
Aug 3
First Quarter

Hourly Weather History & Observations

Time (CDT) Temp. Heat Index Dew Point Humidity Pressure Visibility Wind Dir Wind Speed Gust Speed Precip Events Conditions
12:55 AM 79.0 °F - 66.9 °F 66% 29.84 in 10.0 mi South 13.8 mph - N/A   Clear
1:55 AM 78.1 °F - 66.0 °F 66% 29.83 in 10.0 mi SSW 15.0 mph - N/A   Clear
2:55 AM 75.9 °F - 66.0 °F 71% 29.82 in 10.0 mi SSW 12.7 mph - N/A   Clear
3:55 AM 75.9 °F - 64.9 °F 69% 29.81 in 10.0 mi SSW 13.8 mph - N/A   Clear
4:55 AM 75.9 °F - 64.9 °F 69% 29.78 in 10.0 mi SW 13.8 mph - N/A   Clear
5:55 AM 75.0 °F - 64.0 °F 69% 29.80 in 10.0 mi SW 11.5 mph - N/A   Clear
6:55 AM 73.9 °F - 64.9 °F 73% 29.82 in 10.0 mi SW 10.4 mph - N/A   Clear
7:55 AM 75.9 °F - 66.0 °F 71% 29.84 in 10.0 mi SW 9.2 mph - N/A   Clear
8:55 AM 80.1 °F 82.1 °F 66.0 °F 62% 29.84 in 10.0 mi WSW 13.8 mph - N/A   Clear
9:55 AM 84.0 °F 86.5 °F 66.9 °F 56% 29.84 in 10.0 mi West 8.1 mph - N/A   Clear
10:55 AM 87.1 °F 89.9 °F 66.9 °F 51% 29.84 in 10.0 mi West 6.9 mph - N/A   Clear
11:55 AM 90.0 °F 93.6 °F 68.0 °F 48% 29.83 in 10.0 mi SSW 4.6 mph - N/A   Clear
12:55 PM 93.0 °F 96.4 °F 66.9 °F 42% 29.82 in 10.0 mi South 4.6 mph - N/A   Clear
1:55 PM 97.0 °F 100.4 °F 66.0 °F 36% 29.81 in 10.0 mi Variable 4.6 mph - N/A   Clear
2:55 PM 99.0 °F 100.5 °F 63.0 °F 30% 29.80 in 10.0 mi NNW 3.5 mph - N/A   Clear
3:55 PM 98.1 °F 99.1 °F 62.1 °F 30% 29.78 in 10.0 mi SSW 5.8 mph - N/A   Clear
4:55 PM 99.0 °F 99.5 °F 61.0 °F 28% 29.78 in 10.0 mi Calm Calm - N/A   Clear
5:55 PM 99.0 °F 102.3 °F 64.9 °F 33% 29.77 in 10.0 mi South 6.9 mph - N/A   Clear
6:55 PM 96.1 °F 99.9 °F 66.9 °F 38% 29.77 in 10.0 mi SSE 8.1 mph - N/A   Clear
7:55 PM 93.0 °F 99.0 °F 70.0 °F 47% 29.77 in 10.0 mi South 5.8 mph - N/A   Clear
8:55 PM 86.0 °F 90.1 °F 69.1 °F 57% 29.78 in 10.0 mi South 5.8 mph - N/A   Clear
9:55 PM 84.0 °F 87.8 °F 69.1 °F 61% 29.79 in 10.0 mi Calm Calm - N/A   Clear
10:55 PM 84.9 °F 88.2 °F 68.0 °F 57% 29.81 in 10.0 mi Calm Calm - N/A   Clear
11:55 PM 81.0 °F 85.2 °F 72.0 °F 74% 29.81 in 10.0 mi NNE 8.1 mph - N/A   Clear